Minneapolis, MN

6:06 PM CDT on June 24, 2018 (GMT -0500)
Minneapolis-Saint Paul International

Weather History for KMSP - July, 1997

Change the Weather History Date:

Tuesday, July 22, 1997

  Actual Average Record
Temperature  
Mean Temperature 65 °F 74 °F  
Max Temperature 66 °F 83 °F 105 °F (1934)
Min Temperature 62 °F 64 °F 49 °F (1947)
Degree Days  
Heating Degree Days 0 0  
Month to date heating degree days 0  
Since 1 June heating degree days 44  
Since 1 July heating degree days 0  
Cooling Degree Days 0 9  
Month to date cooling degree days 196  
Year to date cooling degree days 396  
Since 1 June cooling degree days 354  
Growing Degree Days 15 (Base 50)    
Moisture  
Dew Point 64 °F    
Average Humidity 94    
Maximum Humidity 100    
Minimum Humidity 88    
Precipitation  
Precipitation 2.87 in 0.13 in 2.69 in (1997)
Month to date precipitation 2.83  
Year to date precipitation 16.66  
Snow  
Snow 0.00 in 0.00 in 0.00 in ()
Month to date snowfall 0.0  
Since 1 June snowfall 0.0  
Since 1 July snowfall 0.0  
Snow Depth -    
Sea Level Pressure  
Sea Level Pressure 30.07 in    
Wind  
Wind Speed 11 mph (East)    
Max Wind Speed 18 mph    
Max Gust Speed 23 mph    
Visibility 4 miles    
Events Rain , Thunderstorm    
T = Trace of Precipitation, MM = Missing Value Source: NWS Daily Summary

Daily Weather History Graph

Daily Weather History Graph

Search for Another Location

Airport or City:

Astronomy

Jul. 22, 1997 Rise Set
Actual Time 5:47 AM CDT 8:50 PM CDT
Civil Twilight 5:12 AM CDT 9:24 PM CDT
Nautical Twilight 4:28 AM CDT 10:09 PM CDT
Astronomical Twilight 3:34 AM CDT 11:02 PM CDT
Moon 10:27 PM CDT (7/22) 8:54 AM CDT (7/22)
Length of Visible Light 16h 12m
Length of Day
15h 02m
Waning Gibbous, 91% of the Moon is Illuminated
Jul 22
Waning Gibbous
Jul 26
Last Quarter
Aug 3
New
Aug 11
First Quarter
Aug 18
Full

Hourly Weather History & Observations

Time (CDT) Temp. Dew Point Humidity Pressure Visibility Wind Dir Wind Speed Gust Speed Precip Events Conditions
12:04 AM 68.0 °F 64.4 °F 88% 30.08 in 10.0 mi NE 10.4 mph - 0.00 in   Overcast
12:42 AM 66.2 °F 64.4 °F 94% 30.08 in 2.5 mi ENE 9.2 mph - 0.09 in Rain , Thunderstorm Heavy Thunderstorms and Rain
12:55 AM 66.9 °F 64.9 °F 93% 30.06 in 4.0 mi ENE 11.5 mph - 0.18 in Rain , Thunderstorm Heavy Thunderstorms and Rain
1:00 AM 66.2 °F 64.4 °F 94% 30.07 in 6.0 mi ENE 12.7 mph - 0.00 in Rain , Thunderstorm Light Thunderstorms and Rain
1:29 AM 66.2 °F 64.4 °F 94% 30.07 in 10.0 mi East 9.2 mph - 0.01 in Rain , Thunderstorm Light Thunderstorms and Rain
1:55 AM 66.9 °F 64.9 °F 93% 30.05 in 10.0 mi East 10.4 mph - 0.01 in Rain , Thunderstorm Light Thunderstorms and Rain
2:23 AM 66.2 °F 64.4 °F 94% 30.07 in 10.0 mi ENE 8.1 mph - 0.00 in Rain Light Rain
2:34 AM 66.2 °F 64.4 °F 94% 30.07 in 10.0 mi ENE 9.2 mph - 0.00 in Rain Light Rain
2:41 AM 66.2 °F 64.4 °F 94% 30.07 in 10.0 mi ENE 6.9 mph - 0.02 in Rain , Thunderstorm Light Thunderstorms and Rain
2:55 AM 66.9 °F 64.9 °F 93% 30.06 in 4.0 mi East 10.4 mph - 0.10 in Rain , Thunderstorm Thunderstorms and Rain
3:48 AM 66.2 °F 64.4 °F 94% 30.06 in 3.0 mi ESE 9.2 mph - 0.21 in Rain Heavy Rain
3:55 AM 66.9 °F 64.9 °F 93% 30.06 in 4.0 mi East 9.2 mph - 0.24 in Rain Rain
4:14 AM 66.2 °F 64.4 °F 94% 30.06 in 2.5 mi ESE 10.4 mph - 0.10 in Rain , Thunderstorm Heavy Thunderstorms and Rain
4:31 AM 66.2 °F 64.4 °F 94% 30.06 in 2.5 mi East 12.7 mph - 0.20 in Rain , Thunderstorm Heavy Thunderstorms and Rain
4:41 AM 64.4 °F 64.4 °F 100% 30.06 in 1.8 mi East 15.0 mph - 0.29 in Rain , Thunderstorm Heavy Thunderstorms and Rain
4:55 AM 64.9 °F 63.0 °F 93% 30.07 in 2.5 mi East 12.7 mph - 0.34 in Rain , Thunderstorm Light Thunderstorms and Rain
5:02 AM 64.4 °F 62.6 °F 94% 30.08 in 4.0 mi East 12.7 mph - 0.02 in Rain , Thunderstorm Light Thunderstorms and Rain
5:15 AM 64.4 °F 62.6 °F 94% 30.10 in 2.5 mi SE 13.8 mph - 0.16 in Rain , Thunderstorm Heavy Thunderstorms and Rain
5:26 AM 64.4 °F 62.6 °F 94% 30.08 in 1.8 mi East 18.4 mph - 0.42 in Rain , Thunderstorm Heavy Thunderstorms and Rain
5:35 AM 62.6 °F 62.6 °F 100% 30.08 in 1.5 mi East 16.1 mph - 0.53 in Rain , Thunderstorm Heavy Thunderstorms and Rain
5:47 AM 62.6 °F 62.6 °F 100% 30.07 in 2.5 mi East 17.3 mph - 0.58 in Rain , Thunderstorm Thunderstorms and Rain
5:55 AM 63.0 °F 62.1 °F 97% 30.07 in 4.0 mi East 13.8 mph 23.0 mph 0.60 in Rain , Thunderstorm Light Thunderstorms and Rain
6:04 AM 62.6 °F 62.6 °F 100% 30.08 in 5.0 mi East 13.8 mph - 0.02 in Rain Rain
6:26 AM 62.6 °F 60.8 °F 94% 30.09 in 2.0 mi East 11.5 mph 19.6 mph 0.24 in Rain Heavy Rain
6:37 AM 62.6 °F 60.8 °F 94% 30.08 in 4.0 mi East 10.4 mph - 0.26 in Rain Light Rain
6:55 AM 63.0 °F 61.0 °F 93% 30.07 in 7.0 mi ESE 12.7 mph - 0.27 in Rain Light Rain
7:24 AM 62.6 °F 60.8 °F 94% 30.08 in 2.0 mi SE 15.0 mph - 0.17 in Rain Heavy Rain
7:31 AM 62.6 °F 60.8 °F 94% 30.09 in 4.0 mi SE 15.0 mph - 0.20 in Rain Rain
7:55 AM 62.1 °F 60.1 °F 93% 30.09 in 3.0 mi ESE 10.4 mph - 0.25 in Rain Rain
8:43 AM 62.6 °F 60.8 °F 94% 30.09 in 2.5 mi SE 10.4 mph - 0.18 in Rain Heavy Rain
8:55 AM 62.1 °F 61.0 °F 96% 30.09 in 3.0 mi SE 16.1 mph - 0.22 in Rain Rain
9:55 AM 63.0 °F 61.0 °F 93% 30.09 in 8.0 mi ESE 12.7 mph - 0.06 in Rain Light Rain
10:55 AM 64.0 °F 62.1 °F 93% 30.09 in 7.0 mi East 10.4 mph - 0.01 in Rain Light Rain
11:55 AM 64.9 °F 63.0 °F 93% 30.09 in 8.0 mi SE 10.4 mph - 0.00 in Rain Light Rain
12:55 PM 64.9 °F 63.0 °F 93% 30.10 in 6.0 mi ESE 8.1 mph - 0.01 in Rain Light Rain
1:55 PM 66.0 °F 64.0 °F 93% 30.09 in 3.0 mi ESE 6.9 mph - 0.03 in Rain Rain
1:58 PM 66.2 °F 64.4 °F 94% 30.09 in 2.0 mi ESE 8.1 mph - 0.02 in Rain Rain
2:08 PM 66.2 °F 64.4 °F 94% 30.09 in 2.0 mi East 9.2 mph - 0.02 in Rain Light Rain
2:30 PM 66.2 °F 64.4 °F 94% 30.08 in 3.0 mi East 5.8 mph - 0.04 in Rain Light Rain
2:55 PM 66.0 °F 64.0 °F 93% 30.08 in 3.0 mi ENE 8.1 mph - 0.07 in Rain Rain
3:09 PM 66.2 °F 64.4 °F 94% 30.09 in 1.0 mi ENE 9.2 mph - 0.10 in Rain Heavy Rain
3:19 PM 66.2 °F 64.4 °F 94% 30.08 in 1.5 mi ENE 9.2 mph - 0.16 in Rain Heavy Rain
3:36 PM 66.2 °F 64.4 °F 94% 30.08 in 2.0 mi ENE 10.4 mph - 0.18 in Rain Light Rain
3:48 PM 66.2 °F 64.4 °F 94% 30.08 in 3.0 mi ENE 12.7 mph - 0.18 in Rain Light Rain
3:55 PM 66.0 °F 64.9 °F 96% 30.07 in 2.0 mi ENE 12.7 mph - 0.18 in Rain Light Rain
4:02 PM 66.2 °F 64.4 °F 94% 30.08 in 3.0 mi East 12.7 mph - 0.00 in Rain Light Rain
4:55 PM 66.0 °F 64.0 °F 93% 30.07 in 3.0 mi ENE 10.4 mph - 0.02 in Rain Light Rain
5:11 PM 66.2 °F 64.4 °F 94% 30.07 in 1.8 mi ENE 11.5 mph - 0.01 in Rain Light Rain
5:23 PM 66.2 °F 64.4 °F 94% 30.07 in 2.5 mi ENE 11.5 mph - 0.02 in Rain Light Rain
5:26 PM 66.2 °F 64.4 °F 94% 30.06 in 1.8 mi ENE 12.7 mph - 0.03 in Rain Light Rain
5:36 PM 66.2 °F 64.4 °F 94% 30.06 in 1.0 mi East 10.4 mph - 0.07 in Rain Heavy Rain
5:42 PM 66.2 °F 64.4 °F 94% 30.06 in 0.8 mi ENE 10.4 mph - 0.08 in Rain Light Rain
5:55 PM 66.0 °F 64.0 °F 93% 30.06 in 1.5 mi ENE 10.4 mph - 0.13 in Rain Rain
6:36 PM 66.2 °F 64.4 °F 94% 30.06 in 1.2 mi East 9.2 mph - 0.07 in Rain Light Rain
6:55 PM 66.0 °F 64.0 °F 93% 30.05 in 1.5 mi East 10.4 mph - 0.08 in Rain Light Rain
7:08 PM 66.2 °F 64.4 °F 94% 30.05 in 2.0 mi East 11.5 mph - 0.01 in Rain Light Rain
7:48 PM 64.4 °F 64.4 °F 100% 30.05 in 1.5 mi ENE 9.2 mph - 0.03 in Rain Light Rain
7:55 PM 64.9 °F 64.0 °F 97% 30.05 in 1.5 mi ENE 9.2 mph - 0.04 in Rain Light Rain
8:34 PM 66.2 °F 64.4 °F 94% 30.05 in 2.5 mi East 8.1 mph - 0.02 in Rain Light Rain
8:55 PM 66.0 °F 64.9 °F 96% 30.04 in 2.5 mi East 9.2 mph - 0.02 in   Drizzle
9:55 PM 66.0 °F 64.9 °F 96% 30.06 in 2.5 mi ESE 11.5 mph - 0.01 in   Drizzle
10:45 PM 66.2 °F 64.4 °F 94% 30.07 in 2.5 mi East 10.4 mph - 0.00 in   Drizzle
10:55 PM 66.0 °F 64.9 °F 96% 30.06 in 2.5 mi ESE 8.1 mph - 0.00 in   Drizzle
11:02 PM 66.2 °F 64.4 °F 94% 30.07 in 6.0 mi ESE 10.4 mph - 0.00 in   Drizzle
11:55 PM 66.0 °F 64.0 °F 93% 30.06 in 9.0 mi East 12.7 mph - 0.00 in   Overcast